Location: ??????
(55.6361°N, 38.0803°E)
Time: 04:20:14
(UTC+00:00)

Daily predictions for brighter satellites

Satellite Brightness Start Highest point End
(mag) Time Altitude Azimuth Time Altitude Azimuth Time Altitude Azimuth
CZ-4B R/B 3.7 00:04:39 10° ESE 00:07:36 26° ENE 00:10:35 10° N
Cosmos 1812 3.4 00:09:04 44° SE 00:09:46 50° E 00:13:33 10° NNE
SL-16 R/B 3.9 00:09:35 10° NW 00:11:27 17° WNW 00:11:27 17° WNW
SL-16 R/B 4.1 00:09:04 10° NNW 00:14:02 30° NNE 00:18:59 10° E
Meteor 1-28 Rocket 3.2 00:13:59 66° SE 00:14:25 78° ENE 00:18:11 10° NNW
Cosmos 2333 Rocket 2.1 00:09:53 10° NW 00:15:34 81° WSW 00:21:14 10° SSE
SL-08 R/B 3.4 00:15:16 54° SW 00:16:00 60° WSW 00:20:56 10° NNW
SeaSat 1 2.9 00:11:14 10° SE 00:16:07 63° NE 00:21:01 10° NNW
Cosmos 1891 Rocket 4.4 00:10:20 10° NNW 00:16:38 67° W 00:19:20 35° SSW
ERS-2 3.9 00:19:36 21° NW 00:19:36 21° NW 00:21:11 10° NNW
Cosmos 1072 Rocket 4.5 00:12:50 10° NNW 00:18:54 61° W 00:21:18 37° SSW
USA 234 3.5 00:12:47 10° SSE 00:18:58 44° SW 00:25:12 10° WNW
Cosmos 1833 4.5 00:17:30 35° S 00:19:53 63° ESE 00:25:35 10° NE
CZ-4C R/B 3.3 00:22:16 53° NNW 00:22:16 53° NNW 00:24:50 10° NNW
Cosmos 405 Rocket 2.8 00:18:51 10° N 00:22:33 68° ENE 00:23:50 38° SE
Cosmos 2112 Rocket 3.9 00:18:00 10° NNW 00:23:12 70° WSW 00:26:53 20° SSE
IRS-P3 4.1 00:20:38 10° NNE 00:26:01 87° WNW 00:28:12 38° SSW
Cosmos 44 3.4 00:25:28 44° W 00:26:25 54° NW 00:30:43 10° NE
Cosmos 2322 Rocket 4.0 00:24:41 10° WNW 00:26:25 16° WNW 00:26:25 16° WNW
SAR-Lupe-4 3.5 00:28:02 46° SSE 00:29:00 79° ENE 00:32:35 10° NNW
Cosmos 2360 Rocket 3.0 00:25:27 10° NW 00:29:34 30° W 00:29:34 30° W
Meteor 2-6 Rocket 4.0 00:28:35 38° SSW 00:30:44 81° WNW 00:36:10 10° NNE
CBERS-1 4.1 00:26:41 10° NNE 00:31:46 61° WNW 00:33:24 41° SW
IDEFIX/ARIANE 42P 3.6 00:29:34 10° NNE 00:34:30 41° E 00:39:23 10° SSE
Meteor 1-5 Rocket 4.4 00:30:32 10° NNW 00:36:12 52° W 00:38:30 33° SSW
Cosmos 724 4.2 00:34:15 37° SW 00:36:42 89° NW 00:42:32 10° NE
Cosmos 1777 Rocket 4.2 00:36:17 38° WSW 00:38:04 57° NW 00:43:18 10° NNE
CZ-2C R/B 3.8 00:34:23 10° NNE 00:38:18 45° E 00:40:54 19° SSE
Cosmos 1908 Rocket 4.0 00:35:54 10° N 00:40:17 61° ENE 00:44:38 10° SSE
SJ 16-02 2.0 00:38:35 25° S 00:40:50 50° ESE 00:45:07 10° NE
SL-27 R/B 4.4 00:41:05 17° NW 00:41:06 17° NW 00:43:26 10° N
Cosmos 1536 2.7 00:38:30 10° NNW 00:42:31 70° W 00:43:54 39° S
Cosmos 44 Rocket 3.4 00:42:38 35° SSW 00:44:27 64° SE 00:49:08 10° NE
Cosmos 2237 Rocket 2.5 00:39:14 10° NNW 00:44:55 71° NE 00:50:35 10° SE
STARLINK-52 3.4 00:46:04 46° SSE 00:46:04 46° SSE 00:48:48 10° ESE
NOSS 0 Rocket 3.8 00:39:44 10° NW 00:45:57 86° SW 00:52:07 10° SSE
H-2A R/B 2.4 00:46:07 40° WSW 00:46:21 40° W 00:50:20 10° NNW
SAR-Lupe-1 3.9 00:45:41 39° S 00:46:53 74° WSW 00:50:30 10° NNW
Cosmos 1733 Rocket 3.2 00:45:16 10° NNW 00:49:31 52° W 00:50:57 36° SSW
ERS-1 4.4 00:44:42 10° NNE 00:49:45 78° WNW 00:52:19 29° SSW
Cosmos 1464 Rocket 4.4 00:44:39 10° NNW 00:50:23 42° W 00:52:59 28° SW
deb Chang Zheng 4 4.3 00:53:19 10° NNE 00:57:31 52° ESE 01:01:20 12° S
Lacrosse 5 rocket 3.1 00:56:06 16° S 00:57:49 21° SE 01:00:47 10° E
IRS-1D 4.0 00:53:32 10° N 00:58:11 41° WNW 01:00:09 28° WSW
Cosmos 1937 Rocket 4.3 00:54:20 12° S 00:58:53 47° ESE 01:03:53 10° NE
Cosmos 1898 Rocket 3.9 00:55:49 18° S 00:59:33 61° ESE 01:04:42 10° NNE
Cosmos 839 Rocket 4.2 00:56:08 27° WSW 00:59:48 70° NW 01:07:05 10° NE
Genesis I 3.3 00:59:21 35° SSW 01:00:52 71° SE 01:04:47 10° NE
Cosmos 2082 Rocket 3.9 00:57:09 11° WNW 01:01:11 23° NNW 01:05:38 10° NNE
Landsat 5 3.7 01:00:55 37° WSW 01:01:31 40° W 01:05:10 10° NNW
Okean 1-7 4.5 00:58:46 10° SSE 01:02:47 38° E 01:06:51 10° NNE
Meteor 1-10 Rocket 4.4 01:02:08 26° SW 01:05:07 55° WNW 01:10:36 10° N
SL-16 R/B 4.2 01:06:42 14° W 01:06:50 14° W 01:10:01 10° NW
Cosmos 405 3.4 01:05:45 18° S 01:08:16 61° E 01:11:49 10° NNE
Cosmos 1743 2.7 01:08:23 10° NNW 01:12:17 87° ENE 01:16:11 10° SSE
Cosmos 2297 Rocket 4.2 01:08:26 10° SSE 01:12:58 25° ESE 01:17:31 10° NE
Cosmos 1975 3.5 01:11:14 10° N 01:15:12 57° ENE 01:19:09 10° SSE
STARLINK-60 3.8 01:15:09 31° SSW 01:15:14 31° SSW 01:18:11 10° SE
Cosmos 1048 Rocket 4.5 01:10:21 10° NNW 01:15:38 66° ENE 01:20:57 10° SE
Cosmos 2242 Rocket 3.7 01:12:37 11° S 01:16:58 81° E 01:21:35 10° NNE
COSMOS 2428 3.1 01:12:55 10° NW 01:18:10 38° WSW 01:23:21 10° S
CZ-2D R/B 3.7 01:14:28 10° N 01:18:46 58° WNW 01:21:25 22° SW
Okean 1 4.2 01:15:28 10° S 01:19:18 48° E 01:23:09 10° NNE
SL-4 R/B 3.4 01:19:56 20° SSW 01:19:56 20° SSW 01:22:35 10° SSE
STARLINK-43 3.6 01:18:18 29° SW 01:19:52 52° S 01:23:28 10° E
COBE Rocket 4.0 01:18:40 10° S 01:23:24 49° W 01:28:01 10° NNW
Meteor 1-27 Rocket 3.8 01:19:24 17° SSW 01:23:41 62° WNW 01:29:23 10° N
USA 267 3.3 01:17:40 10° ENE 01:24:16 84° SSE 01:29:26 18° WSW
Spot 4 Rocket 4.2 01:19:47 10° N 01:24:52 58° WNW 01:28:46 17° SW
Tsikada Rocket 4.1 01:19:10 12° SSW 01:25:05 69° WNW 01:31:32 10° N
Cosmos 1634 Rocket 4.0 01:21:02 10° NNW 01:27:08 63° W 01:33:12 10° S
ATLAS 5 CENTAUR R/B 3.1 01:22:50 10° NW 01:27:47 47° NNE 01:33:34 10° E
Cosmos 2285 Rocket 4.1 01:23:03 18° SW 01:27:59 70° WNW 01:34:25 10° NNE
CZ-2D R/B 3.8 01:28:48 10° N 01:32:34 19° NW 01:35:36 13° W
Cosmos 990 Rocket 3.9 01:28:27 16° SSW 01:32:40 81° WNW 01:37:52 10° NNE
Cosmos 1184 Rocket 3.9 01:30:12 10° NW 01:32:59 25° W 01:33:37 24° WSW
Geosat 4.2 01:28:46 10° NE 01:33:49 75° ESE 01:38:47 10° SSW
Cosmos 1666 3.8 01:31:38 10° NW 01:34:39 23° W 01:35:38 21° WSW
Cosmos 2219 Rocket 3.0 01:30:06 10° NW 01:34:49 28° WSW 01:39:31 10° SSW
COSMOS 2487 4.0 01:33:31 17° W 01:34:53 21° NW 01:37:37 10° N
Resurs 1-4 Rocket 3.9 01:33:37 10° N 01:36:59 17° NW 01:39:58 11° W
Cosmos 2227 Rocket 3.8 01:32:45 10° S 01:37:43 33° ESE 01:42:42 10° NE
BREEZE-M DEB (TANK) 3.5 01:36:09 19° WSW 01:38:26 31° S 01:40:44 10° ESE
CZ-4B R/B 2.1 01:36:36 10° SSW 01:39:49 35° W 01:43:06 10° NNW
STARLINK-42 4.4 01:38:09 16° SSW 01:40:02 27° SSE 01:42:49 10° E
STARLINK-29 3.7 01:38:50 22° WSW 01:40:20 34° SSW 01:43:20 10° SE
STARLINK-26 4.0 01:38:45 19° SW 01:40:48 39° SSE 01:44:04 10° E
Cosmos 1862 Rocket 4.1 01:37:57 17° SW 01:40:58 41° WNW 01:45:11 10° N
PSLV R/B 3.6 01:36:49 10° NNE 01:41:11 82° ESE 01:45:32 10° SSW
FALCON 9 DEB 3.8 01:40:19 20° WSW 01:42:13 37° SSW 01:45:25 10° SE
ARIANE 5 R/B 3.3 01:37:51 10° N 01:42:34 36° WNW 01:46:20 15° WSW
BREEZE-M DEB (TANK) 4.3 01:39:05 10° W 01:43:36 21° SW 01:46:40 10° S
ADEOS II 3.2 01:39:10 10° N 01:43:38 29° NW 01:47:06 15° WSW
Cosmos 1818 4.2 01:38:52 10° NW 01:44:18 59° NE 01:49:41 10° ESE
STARLINK-80 3.9 01:41:58 18° SW 01:44:29 47° SSE 01:48:10 10° E
Cosmos 1980 3.8 01:39:48 10° NW 01:45:17 51° WSW 01:50:44 10° S
Cosmos 1812 4.2 01:44:10 16° W 01:45:51 21° WNW 01:48:54 10° NNW
Cosmos 1689 Rocket 2.4 01:47:08 10° S 01:50:02 43° W 01:52:58 10° NNW
Cosmos 1782 Rocket 3.6 01:46:38 10° NNW 01:50:53 53° W 01:55:07 10° S
SeaSat 1 3.1 01:49:34 10° S 01:53:56 31° WSW 01:58:20 10° NW
Cosmos 389 Rocket 4.4 01:51:02 10° SSE 01:54:17 33° E 01:57:32 10° NNE
Cosmos 405 Rocket 4.4 01:56:01 10° NW 01:58:03 14° W 01:58:56 13° WSW
SL-16 R/B 2.2 01:53:11 10° NW 01:58:54 90° SSE 02:04:34 10° SSE
Cosmos 2333 Rocket 3.4 01:55:13 10° WNW 01:59:01 19° W 02:02:50 10° SW
STARLINK-41 4.2 02:00:22 11° SW 02:03:00 31° SSE 02:05:52 10° E
Cosmos 1703 Rocket 3.7 01:59:54 10° SSW 02:04:19 59° WNW 02:08:47 10° N
ALOS 4.2 02:00:35 10° NNE 02:04:50 33° E 02:09:04 10° SSE
STARLINK-1306 4.5 02:02:46 10° SSW 02:04:52 21° SSE 02:06:59 10° ESE
ADEOS Rocket 4.4 01:59:16 10° SE 02:06:50 57° ENE 02:14:08 10° NNW
CZ-2C R/B 2.3 02:04:35 10° NNE 02:09:18 90° NW 02:13:54 10° SSW
Cosmos 2221 Rocket 4.1 02:06:00 10° S 02:10:26 66° E 02:14:52 10° NNE
STARLINK-55 3.9 02:08:07 11° SW 02:11:01 38° SSE 02:14:02 10° E
CZ-2C R/B 4.0 02:09:07 10° N 02:12:34 27° WNW 02:16:01 10° WSW
Sich 1 Rocket 3.8 02:09:03 10° NNW 02:13:17 46° W 02:17:29 10° SSW
STARLINK-28 3.8 02:10:51 10° SW 02:13:50 40° SSE 02:16:53 10° E
IDEFIX/ARIANE 42P 3.1 02:09:16 10° N 02:14:08 41° WNW 02:18:58 10° SW
STARLINK-33 3.8 02:15:00 10° SW 02:18:02 39° SSE 02:21:05 10° E
COSMO-SKYMED 1 2.8 02:14:02 10° SSE 02:18:23 77° ENE 02:22:45 10° NNW
SJ-6F 4.4 02:14:43 10° NNE 02:18:52 87° WNW 02:23:00 10° SSW
STARLINK-1313 4.1 02:17:19 10° SSW 02:19:06 20° SSE 02:20:53 10° ESE
MSX 4.0 02:13:57 10° N 02:19:33 56° WNW 02:25:10 10° SW
SJ 16-02 2.4 02:15:46 10° WSW 02:19:40 30° NW 02:23:34 10° NNE
STARLINK-48 4.0 02:17:19 10° WSW 02:21:07 50° SSE 02:24:53 10° E
STARLINK-52 4.3 02:18:45 10° W 02:21:27 24° SSW 02:24:08 10° SSE
STARLINK-66 3.8 02:19:22 10° WSW 02:22:26 41° SSE 02:25:30 10° E
STARLINK-1301 4.0 02:20:51 10° SSW 02:22:37 20° SSE 02:24:21 10° ESE
Meteor 1-31 Rocket 3.1 02:19:09 10° NNE 02:23:07 73° ESE 02:27:03 10° S
STARLINK-1317 4.0 02:23:02 10° SW 02:24:53 22° SSE 02:26:45 10° ESE
Okean 3 3.5 02:21:08 10° S 02:25:19 85° E 02:29:32 10° NNE
Cosmos 2279 Rocket 4.4 02:20:22 10° NNW 02:26:06 40° W 02:31:50 10° SSW
Cosmos 44 Rocket 4.0 02:21:47 10° W 02:26:15 40° NNW 02:30:44 10° NE
Cosmos 2151 Rocket 3.5 02:21:51 10° NNW 02:26:17 74° W 02:30:40 10° S
Okean 2 Rocket 3.2 02:22:33 10° NNW 02:26:56 54° W 02:31:18 10° S
Cosmos 2237 Rocket 3.0 02:23:48 10° NW 02:28:35 29° WSW 02:33:22 10° SSW
STARLINK-1286 4.1 02:26:54 10° SW 02:29:17 27° SSE 02:31:39 10° E
Cosmos 1269 Rocket 4.0 02:24:57 10° NNW 02:30:19 81° WSW 02:35:38 10° SSE
Meteor 2-4 Rocket 4.0 02:24:23 10° S 02:30:21 84° ESE 02:36:19 10° NNE
PAYLOAD A 4.3 02:25:12 10° N 02:30:34 59° WNW 02:35:53 10° SW
Nadezhda 4 Rocket 4.2 02:27:24 10° S 02:33:44 89° ESE 02:40:08 10° NNE
